Location: Grand Rapids
(42.9630°N, 85.6680°W)
Time: 13:56:35
(UTC-04:00)

Envisat - Pass Details

Date: 26 April 2024
Orbit: 762 x 764 km, 98.3° (Epoch: 20 May)

Event Time Altitude Azimuth Distance (km) Brightness Sun altitude
Rises 04:32:02 0° 20° (NNE) 3,236 7.4 -21.0°
Reaches altitude 10° 04:34:29 10° 27° (NNE) 2,305 6.5 -20.7°
Maximum altitude 04:39:17 42° 98° (E) 1,088 4.0 -20.1°
Enters shadow 04:43:28 13° 166° (SSE) 2,082 5.0 -19.5°
